Regional Weather Roundup
Issued by NWS

Home | Current Version | Previous Version | Text Only | Print | Product List | Glossary Off
Versions: 1 2 3 4 5 6 7 8 9 10 11 12 13 14 15 16 17 18 19 20 21 22 23 24 25 26 27 28 29 30 31 32 33 34 35 36 37 38 39 40 41 42 43 44 45 46 47 48 49 50

000
ASUS45 KPSR 060310
RWRAZ

ARIZONA REGIONAL HOURLY WEATHER ROUNDUP
NATIONAL WEATHER SERVICE PHOENIX AZ
800 PM MST THU MAR 05 2015

NOTE: FAIR INDICATES FEW OR NO CLOUDS BELOW 12,000 FEET WITH NO
SIGNIFICANT WEATHER AND/OR OBSTRUCTIONS TO VISIBILITY.

AZZ001>003-036-060400-
NORTHWEST ARIZONA

CITY           SKY/WX    TMP DP  RH WIND       PRES   REMARKS
BULLHEAD CITY  CLEAR     64  19  17 N15       30.25R
KINGMAN        CLEAR     47  29  49 E8        30.31R
$$

AZZ004>008-015-016-018-060400-
NORTH CENTRAL ARIZONA

CITY           SKY/WX    TMP DP  RH WIND       PRES   REMARKS
GRAND CANYON   CLEAR     26  17  68 CALM      30.39R
PRESCOTT       CLEAR     43  20  39 W3        30.31R
FLAGSTAFF      CLEAR     27  17  66 CALM      30.37S
PAYSON         CLEAR     46   9  21 N7        30.32S
PAGE           CLEAR     42  24  49 SE5       30.37R
$$

AZZ009>014-017-060400-
NORTHEAST ARIZONA

CITY           SKY/WX    TMP DP  RH WIND       PRES   REMARKS
WINSLOW        CLEAR     34  18  52 W7        30.36R WCI  28
SAINT JOHNS    CLEAR     37   9  31 W5        30.33R WCI  33
WINDOW ROCK    CLEAR     36  15  42 E6        30.38R WCI  31
SHOW LOW       CLEAR     32   9  37 E3        30.38R
$$

AZZ023-060400-
GREATER PHOENIX AREA

CITY           SKY/WX    TMP DP  RH WIND       PRES   REMARKS
PHOENIX        CLEAR     66  31  27 SW3       30.16R
BUCKEYE        CLEAR     57  36  44 NW3       30.18S
GLENDALE       CLEAR     66  27  22 CALM      30.18R
LUKE AFB       CLEAR     61  37  40 W2        30.16R
DEER VALLEY    CLEAR     62  23  22 CALM      30.17R
SCOTTSDALE     CLEAR     64  28  25 CALM      30.19R
MESA-FALCON    CLEAR     64  23  20 NW6       30.17R
MESA-GATEWAY   CLEAR     63  28  27 N6        30.19R
CHANDLER       CLEAR     64  23  20 CALM      30.17R
$$

AZZ027-028-060400-
SOUTHWEST MARICOPA COUNTY AND PINAL COUNTY

CITY           SKY/WX    TMP DP  RH WIND       PRES   REMARKS
CASA GRANDE    CLEAR     61  25  25 N7        30.17S
GILA BEND      CLEAR     60  34  38 SE5       30.16S
$$

AZZ503-504-507>509-060400-
SOUTHEAST ARIZONA

CITY           SKY/WX    TMP DP  RH WIND       PRES   REMARKS
TUCSON         CLEAR     61  19  19 E10       30.20R
DAVIS-MONTHAN  CLEAR     60  19  20 NE17      30.18R
RYAN FIELD       N/A     63  21  20 E15       30.19R
NOGALES        CLEAR     52  23  32 SE9       30.20R
SIERRA VISTA   CLEAR     48  25  40 SE13      30.25R
DOUGLAS        CLEAR     49  25  39 E15       30.26R
SAFFORD        CLEAR     54  20  26 SE10      30.28R
$$

AZZ020-021-025-026-031-060400-
SOUTHWEST ARIZONA

CITY           SKY/WX    TMP DP  RH WIND       PRES   REMARKS
YUMA           CLEAR     68  29  23 N12       30.15S
$$

CAZ031-033-041-043-047-048-061-060400-
SOUTHERN CALIFORNIA

CITY           SKY/WX    TMP DP  RH WIND       PRES   REMARKS
DOWNTOWN L.A.  CLEAR     65  28  24 NW3       30.17S
L.A. AIRPORT   CLEAR     63  35  35 W13       30.17F
SAN DIEGO      CLEAR     66  29  24 N9        30.16R
BURBANK        CLEAR     64  23  21 CALM      30.18R
ONTARIO        CLEAR     63  31  30 N6        30.17S
RIVERSIDE      CLEAR     65  14  14 E6        30.18R
PALM SPRINGS   CLEAR     70  18  13 W5        30.22R
EL CENTRO NAS  CLEAR     64  30  27 W5        30.17S
IMPERIAL       CLEAR     61  36  39 W3        30.17R
BLYTHE         CLEAR     63  38  39 N9        30.19S
NEEDLES        CLEAR     63  22  20 N9        30.23R
$$

NVZ020-UTZ003-060400-
SOUTHERN NEVADA-UTAH

CITY           SKY/WX    TMP DP  RH WIND       PRES   REMARKS
LAS VEGAS      CLEAR     60  23  24 S6        30.27R
SALT LAKE CITY PTCLDY    41  21  44 E5        30.41S
$$

NMZ009-TXZ055-060400-
NEW MEXICO-WEST TEXAS

CITY           SKY/WX    TMP DP  RH WIND       PRES   REMARKS
ALBUQUERQUE    CLEAR     46  11  24 N8        30.36R
EL PASO        CLEAR     44  23  43 SE6       30.36R
$$


........................KEY........................
SKY/WX - SKY CONDITION/WEATHER
TMP    - TEMPERATURE IN FAHRENHEIT
DP     - DEW POINT IN FAHRENHEIT
RH     - RELATIVE HUMIDITY IN PERCENT
WIND   - DIRECTION AND SPEED IN MILES PER HOUR (MPH)
VRB    - VARIABLE WIND DIRECTION
PRES   - MEAN SEA LEVEL PRESSURE IN INCHES OF MERCURY
         F - FALLING PRESSURE   R - RISING PRESSURE
         S - STEADY PRESSURE
VSB    - VISIBILITY IN MILES
HX     - HEAT INDEX IN FAHRENHEIT
WCI    - WIND CHILL INDEX IN FAHRENHEIT
TC     - TEMPERATURE IN CELSIUS WHICH IS ALSO KNOWN AS
         TEMPERATURE IN CENTIGRADE
AFB    - AIR FORCE BASE
         LUKE AFB IS LUKE AIR FORCE BASE
         DAVIS-MONTHAN IS DAVIS-MONTHAN AIR FORCE BASE
NAS    - NAVAL AIR STATION
         EL CENTRO NAS IS EL CENTRO NAVAL AIR STATION
N/A    - NOT AVAILABLE



USA.gov is the U.S. government's official web portal to all federal, state and local government web resources and services.